Simultaneous Nadir Overpasses (SNOs) Predictions

Prediction of SNOs between GOES-16 and AQUA Satellite Orbit:

Table of predicted SNOs for the next 14.0 days since TLE Epoch: 7/15/2023
Index Date Time (GOES-16) GOES-16 Lat,Lon AQUA Lat,Lon Distance(km) Time Diff (sec)
1 07/15/2023 07:10:32 0.02, -75.20 0.94, -79.43 481.72 80
2 07/16/2023 18:32:55 0.02, -75.20 0.90, -70.95 483.45 80
3 07/17/2023 06:56:19 -0.02, -75.20 0.13, -75.98 87.92 80
4 07/19/2023 06:39:24 -0.02, -75.20 -0.59, -72.50 307.75 80
5 07/19/2023 19:00:17 0.02, -75.21 -0.46, -77.56 266.53 80
6 07/21/2023 18:48:41 0.01, -75.22 0.24, -74.07 130.69 80
7 07/22/2023 07:06:44 -0.00, -75.22 0.84, -79.09 439.89 80
8 07/24/2023 06:52:28 0.00, -75.24 0.11, -75.61 41.83 80
9 07/26/2023 06:38:12 -0.00, -75.27 -0.66, -72.13 356.64 80
10 07/26/2023 18:59:04 0.01, -75.28 -0.41, -77.18 217.18 80
11 07/28/2023 18:47:27 0.01, -75.30 0.33, -73.70 181.73 80
